GFSCGP_925_rhum_078.txt.gz
RH
68 86 86 64 93 95 100 98 90 58 69 54 87 68 76 72 64 58 62 65 68 80 93 97 84 71 91 68 78 84 76 78 86 95 74 74 70 90 87 81 93 90 89 90
77 85 57 74 86 96 100 97 97 92 72 57 91 86 77 73 71 63 64 65 84 93 94 95 97 96 94 84 81 80 88 78 81 83 71 71 76 96 90 89 91 92 96 85
96 67 72 93 99 100 98 86 82 98 84 76 79 93 89 76 74 75 71 64 72 77 87 90 98 95 86 94 91 89 88 82 75 68 77 82 89 86 81 86 96 95 90 92
90 77 83 94 100 88 89 68 92 96 99 98 84 92 100 89 84 84 70 67 76 76 62 67 71 76 88 88 78 83 89 76 69 74 72 78 83 89 87 86 86 88 88 99
98 87 82 83 98 79 78 80 82 87 69 82 96 96 94 86 90 86 77 78 75 72 65 55 48 51 55 51 52 62 87 88 82 85 84 75 79 87 89 84 85 99 96 84
83 66 78 79 76 81 80 67 73 69 67 91 100 94 93 81 56 70 69 75 69 65 60 53 56 58 64 65 62 62 78 97 96 84 74 73 71 84 96 95 93 93 91 92
73 94 85 86 93 89 85 66 93 86 91 95 97 79 93 50 48 51 76 69 75 65 60 61 62 62 68 70 68 75 80 87 95 96 100 99 87 84 86 92 89 96 100 97
93 100 98 84 87 85 71 68 64 69 87 96 59 88 88 51 55 76 74 75 65 69 59 64 60 64 67 71 70 63 64 68 67 65 72 85 100 100 100 100 100 100 100 100
99 100 92 82 68 64 64 67 49 71 78 62 75 59 50 50 57 69 80 78 80 64 56 55 56 58 59 61 64 66 64 64 67 65 66 66 70 76 89 89 98 100 100 100
72 93 70 66 61 53 50 43 59 66 73 78 71 56 61 56 60 58 62 68 70 61 59 57 55 58 60 61 60 59 60 63 65 66 66 67 63 64 70 78 84 92 100 100
63 63 70 62 74 76 55 51 51 48 58 52 59 61 41 51 52 57 60 58 56 55 51 48 46 48 50 55 60 62 61 62 62 63 68 69 70 64 64 67 76 90 98 100
58 59 81 71 58 60 66 54 43 45 55 54 42 51 46 44 51 54 58 54 50 50 46 46 46 45 47 49 51 58 66 67 69 67 65 64 70 72 68 68 70 78 90 99
52 63 80 67 54 54 56 52 48 46 47 54 46 52 47 46 54 56 53 48 46 46 46 46 46 49 50 54 56 59 64 68 71 72 69 67 65 68 70 71 70 66 78 85
50 58 66 59 68 63 58 54 50 46 53 40 43 57 57 57 58 61 52 46 45 47 50 50 48 50 53 58 62 66 67 71 73 74 72 70 72 73 71 73 73 73 75 78
51 78 73 58 59 61 61 61 54 60 47 44 44 44 49 52 53 55 48 47 49 51 50 52 52 51 54 59 63 67 70 72 74 75 75 77 78 78 80 76 74 73 71 75
54 79 65 75 49 54 62 61 57 53 52 48 44 50 40 48 53 52 48 51 54 54 54 54 53 56 58 62 68 70 72 74 75 76 78 80 80 81 85 84 82 81 74 78
58 67 75 75 53 50 50 56 59 61 57 49 45 54 53 59 56 53 52 53 55 57 56 55 55 58 63 68 74 75 77 78 76 80 83 83 83 84 87 92 86 86 85 84
56 61 70 75 56 63 48 54 58 55 58 56 55 61 54 55 55 53 50 52 56 57 57 56 59 65 69 74 78 79 79 78 79 82 84 89 90 86 88 91 91 86 88 89
48 50 62 61 56 47 51 57 55 54 52 54 55 58 54 52 53 58 58 57 57 58 60 64 68 69 66 70 70 82 81 81 82 81 84 95 98 92 90 94 96 95 92 94
51 47 47 53 54 41 46 53 51 55 45 53 52 55 54 53 57 47 57 59 58 64 66 67 68 62 60 57 70 70 77 82 83 92 91 93 99 99 96 96 99 100 100 99
63 61 62 60 57 48 45 51 51 52 44 53 51 52 54 52 48 56 62 61 68 67 63 64 56 60 53 58 66 59 60 61 68 72 86 88 90 99 100 100 100 100 100 100
62 61 61 63 64 50 50 55 53 48 57 53 55 55 56 54 59 62 63 64 61 58 57 56 55 56 53 55 59 56 54 57 61 64 71 74 80 96 99 100 100 100 100 100
62 54 49 52 44 49 52 54 56 54 51 59 57 57 58 61 61 63 60 54 54 56 55 56 55 54 49 50 54 54 48 53 56 60 61 64 62 73 94 99 100 100 100 100
60 59 57 56 52 54 54 57 59 58 57 58 58 58 63 60 61 55 54 52 53 55 56 56 56 54 49 46 50 53 55 56 58 55 56 59 59 61 64 86 100 100 100 100
55 62 58 57 53 57 54 58 56 61 62 64 64 62 61 61 55 53 52 55 56 56 57 59 61 56 52 53 54 53 56 60 59 57 57 59 60 59 63 70 89 100 99 100
57 53 53 43 50 50 52 57 58 63 64 62 61 57 58 62 56 58 54 56 56 53 51 60 58 57 56 56 57 58 57 59 61 60 59 58 64 63 68 70 75 82 98 99

GFSCGP_925_rhum_081.txt.gz
RH
60 84 88 59 58 55 79 99 96 84 44 44 48 44 36 63 60 54 37 34 41 54 83 84 92 82 80 83 90 92 91 80 81 86 82 74 75 77 82 89 86 84 81 77
64 82 48 53 54 68 78 98 95 77 54 53 41 53 37 58 64 64 59 45 52 88 95 98 96 95 88 90 83 88 89 75 79 80 73 78 76 72 78 90 90 88 88 88
65 53 52 88 98 97 96 85 85 100 73 59 62 91 75 55 56 60 62 61 72 80 95 97 97 98 96 87 88 88 89 90 85 84 82 78 78 78 81 92 91 91 93 92
68 53 83 94 100 98 95 70 91 95 70 85 60 84 89 72 69 81 72 74 80 85 87 90 93 100 98 91 86 91 93 88 66 81 90 88 86 83 84 84 86 84 79 93
92 83 87 94 98 91 97 70 73 86 98 87 79 71 89 90 86 93 89 89 84 85 85 88 92 91 92 97 97 90 90 90 88 82 84 86 93 84 87 88 92 78 72 91
93 60 73 79 68 70 76 83 86 87 96 95 98 76 97 100 98 80 85 84 72 67 84 89 78 70 72 72 71 70 77 86 86 87 86 86 89 91 88 94 93 80 80 89
64 83 81 82 95 81 86 79 95 99 98 98 99 67 98 94 67 79 90 86 78 72 75 85 78 70 69 67 71 82 85 85 93 99 99 98 83 88 92 81 90 86 89 89
97 98 97 83 85 70 88 63 85 94 92 92 69 92 95 89 83 89 81 80 81 77 77 74 65 69 66 68 63 61 64 65 66 69 74 87 99 99 98 96 99 98 96 98
100 100 88 73 60 61 61 64 45 56 45 61 81 91 74 75 85 83 82 79 78 83 77 67 67 52 52 53 56 58 59 62 64 67 65 64 66 75 90 95 99 94 99 97
91 100 82 58 55 51 54 41 62 59 74 75 64 64 72 75 84 82 88 87 80 68 60 56 47 49 52 53 53 53 54 56 59 62 66 66 64 62 65 77 88 94 98 99
58 70 63 53 63 64 54 45 39 41 51 47 58 63 41 50 54 62 67 70 68 63 50 44 40 41 42 45 51 55 57 59 60 58 57 62 65 66 64 68 73 84 94 99
50 54 70 61 48 49 54 41 36 47 51 43 43 58 38 43 46 49 52 50 47 45 44 42 40 40 43 45 46 51 55 57 59 61 59 59 59 64 67 67 68 71 79 91
44 52 76 60 50 43 45 40 36 36 41 45 46 54 36 43 49 47 47 44 43 44 42 40 40 42 45 48 51 52 55 57 61 62 60 60 62 64 62 66 68 67 71 77
49 50 62 65 70 56 52 43 35 43 53 32 42 52 45 48 52 49 44 41 42 43 44 45 43 43 45 51 53 55 57 61 62 63 63 64 68 67 69 69 69 70 71 74
44 68 67 48 49 52 50 48 41 51 36 41 39 42 45 45 47 47 42 41 42 44 46 46 47 45 47 52 55 58 60 62 65 63 66 69 71 72 73 75 75 73 74 74
44 72 60 70 43 47 55 49 45 45 40 37 37 43 35 37 39 46 42 44 46 47 47 47 46 47 50 54 60 63 66 67 66 66 70 74 75 76 78 79 83 79 77 76
49 59 74 68 45 45 46 51 52 53 48 45 41 46 37 48 49 46 43 45 46 48 49 48 46 49 53 58 64 66 68 68 66 70 72 76 81 83 80 81 82 84 81 80
46 52 66 71 53 60 44 44 49 49 50 48 50 48 43 44 46 44 42 44 46 48 48 47 48 54 56 55 59 62 69 68 69 70 72 75 85 91 88 85 86 87 88 84
38 39 49 57 43 39 41 46 47 49 45 45 48 49 47 48 48 49 46 46 47 49 50 53 56 57 52 48 48 54 55 57 58 58 68 77 81 91 94 94 92 94 97 94
43 39 42 40 46 34 41 45 44 46 42 44 46 49 50 49 56 52 48 50 49 53 56 55 56 46 49 41 48 53 50 51 47 53 58 63 74 78 87 94 95 97 98 99
50 47 50 45 47 40 40 45 45 49 48 44 44 46 47 50 49 50 50 50 56 56 53 49 44 45 42 41 46 49 48 47 49 53 54 57 62 66 78 90 96 98 98 99
50 49 46 49 53 50 40 50 50 45 46 44 46 46 49 46 49 51 51 53 52 48 46 44 41 42 42 41 44 44 43 44 43 44 46 49 50 52 54 73 82 89 93 94
48 47 43 43 41 40 39 43 47 45 44 49 48 49 50 51 51 51 53 45 40 42 42 42 41 38 37 37 38 39 39 42 45 45 44 43 45 47 46 49 56 77 96 100
47 46 48 48 38 42 42 41 46 48 48 50 50 50 53 52 48 48 43 40 39 40 42 42 39 37 36 36 36 40 42 44 46 46 45 44 45 48 50 47 52 67 83 96
45 52 47 46 38 44 44 44 44 49 52 54 54 53 52 51 45 41 40 40 42 43 43 43 42 42 43 44 46 45 45 45 46 48 48 47 46 46 48 50 54 59 70 82
45 42 48 34 41 42 48 48 47 52 57 54 54 52 48 50 46 44 45 42 42 42 41 41 42 45 47 49 50 48 48 48 46 46 48 49 52 55 56 59 61 63 69 75

GFSCGP_925_rhum_084.txt.gz
RH
68 95 95 73 74 71 71 76 80 71 57 78 74 61 49 54 64 75 70 53 45 58 89 85 90 87 88 86 90 97 91 68 87 99 77 70 71 80 86 80 83 85 84 82
76 98 58 52 79 81 88 83 87 72 66 75 83 61 47 47 69 63 71 71 67 84 90 89 88 88 91 94 90 98 97 88 69 87 83 79 75 67 69 77 84 81 84 81
89 59 71 86 92 98 91 79 91 96 90 76 66 64 57 58 53 57 58 69 84 87 91 90 90 92 94 95 98 99 99 92 91 92 89 84 83 81 78 76 77 82 81 80
85 61 60 73 99 98 99 72 76 100 95 93 78 98 68 75 71 61 75 75 90 93 94 93 94 99 99 99 97 100 100 98 92 89 87 91 84 82 84 88 88 87 86 81
80 84 87 98 94 92 96 73 92 90 93 86 86 97 92 84 83 84 91 89 91 90 91 94 95 98 97 97 100 89 98 99 86 88 87 88 85 92 89 89 96 90 86 79
93 66 79 72 66 72 73 81 90 95 99 87 83 87 99 97 98 90 91 90 92 94 93 93 94 93 94 93 93 95 97 84 87 85 89 97 88 90 82 86 88 89 87 81
77 86 78 79 93 75 84 96 99 98 98 98 95 76 95 92 91 86 93 95 94 92 92 94 94 92 85 82 84 83 82 86 96 100 100 97 94 93 88 89 97 99 82 87
100 98 96 85 91 96 85 97 99 97 97 98 77 95 99 95 91 86 90 91 91 92 82 83 91 88 71 63 65 66 65 65 67 68 78 88 98 96 88 79 98 84 95 90
100 100 84 83 72 60 70 93 73 100 66 92 99 100 97 95 93 91 93 92 93 89 86 81 70 66 59 54 54 56 58 60 62 65 65 65 67 78 91 97 99 100 96 98
90 100 78 62 69 57 58 46 73 88 97 95 86 92 100 100 98 92 90 92 86 78 80 61 60 59 53 55 56 57 59 60 60 58 58 63 65 63 64 69 77 88 92 95
66 85 63 58 63 67 59 57 48 49 62 75 81 96 58 90 87 93 90 82 63 67 54 47 45 43 44 47 52 55 57 59 59 58 59 58 59 62 62 62 65 68 72 88
50 65 80 59 48 47 59 45 41 77 61 64 72 77 50 56 56 55 58 58 50 48 48 47 45 46 48 51 52 55 57 60 62 61 59 60 60 60 60 63 66 66 65 72
54 62 91 68 59 50 47 41 45 43 64 58 79 80 51 57 57 52 55 52 51 48 47 47 48 50 51 53 54 56 60 61 62 63 64 65 66 66 67 67 65 67 68 66
62 59 72 89 74 61 60 49 45 59 79 62 64 69 66 63 60 55 53 51 52 51 51 52 52 51 51 54 56 58 61 63 64 64 66 70 71 72 73 74 75 73 71 71
52 72 70 49 50 53 54 53 52 56 43 62 59 60 59 61 62 55 51 50 51 52 53 53 55 55 52 56 60 63 66 67 66 66 70 74 76 77 76 77 78 77 77 76
47 75 65 62 46 51 59 56 55 56 51 44 49 55 45 50 54 52 51 50 52 53 52 51 50 52 56 60 64 66 68 69 66 69 72 75 79 82 84 82 82 83 84 81
54 74 89 78 48 47 64 56 58 55 55 55 61 51 47 52 56 51 51 49 52 53 52 51 53 56 58 58 63 61 69 69 69 71 72 73 79 84 89 90 88 87 88 90
48 60 86 88 68 75 48 45 49 53 50 50 55 50 50 52 53 51 49 49 54 52 54 55 56 58 54 50 48 56 58 58 58 64 60 67 75 79 85 91 94 93 94 94
46 50 71 85 65 43 46 49 53 62 55 48 54 52 56 54 51 54 53 56 60 58 57 58 58 53 48 45 44 52 53 52 52 50 54 59 61 74 78 82 86 94 96 98
45 44 59 58 58 45 48 49 44 47 64 48 48 53 54 52 73 74 57 54 54 55 56 54 54 44 46 40 37 41 46 49 49 51 51 54 55 63 63 74 77 87 94 96
59 58 63 58 64 52 49 48 46 57 64 46 46 51 52 62 65 62 54 52 56 57 54 49 46 43 44 43 42 44 47 49 45 46 43 45 46 50 51 53 58 72 79 85
59 68 61 59 62 67 48 50 52 54 49 47 48 51 51 58 57 54 53 54 53 49 46 44 43 42 41 41 41 43 44 42 41 43 44 45 44 43 44 47 47 51 63 82
61 57 63 53 60 47 45 52 51 50 52 51 51 54 53 54 53 54 57 48 44 42 43 43 42 41 39 38 37 38 38 40 43 44 46 47 46 45 44 48 50 50 55 76
48 49 64 56 45 48 47 44 48 49 50 52 55 57 56 58 54 51 48 45 44 42 43 43 44 44 41 39 40 42 44 44 44 45 46 47 48 48 48 47 48 50 54 64
58 58 56 56 48 49 47 44 50 55 55 56 59 57 58 54 50 45 49 48 45 45 44 43 45 46 46 46 48 49 49 49 48 49 49 48 48 48 49 52 53 55 56 61
61 61 68 58 50 52 58 53 51 56 62 57 58 58 52 52 53 50 54 48 45 43 41 43 44 46 47 45 46 50 52 49 49 48 48 50 53 54 56 59 62 63 65 72

GFSCGP_925_rhum_090.txt.gz
RH
79 90 90 81 87 77 81 94 93 77 63 70 74 74 72 66 70 64 68 73 69 62 50 85 96 83 80 79 86 82 82 77 77 84 87 89 83 98 94 83 83 89 84 77
86 92 73 70 78 87 91 89 86 75 63 74 81 85 72 68 68 60 66 78 83 81 94 92 99 100 100 95 94 96 92 91 93 83 87 94 86 97 99 94 92 78 63 67
96 72 67 77 86 91 86 85 83 97 84 76 79 80 80 65 63 78 84 88 87 89 87 94 96 99 100 99 97 99 98 97 94 85 90 90 90 95 100 100 99 88 72 65
88 74 76 81 91 84 96 72 90 99 98 95 83 94 91 86 83 88 88 97 94 97 98 96 97 98 100 99 97 100 99 100 99 95 97 91 94 98 96 100 97 89 81 75
77 83 86 93 86 84 84 85 94 89 91 97 95 99 76 82 80 89 82 86 90 94 96 97 96 98 99 100 99 100 100 99 100 99 98 100 99 100 99 99 100 99 97 93
80 71 85 79 76 80 74 85 96 96 97 98 87 91 96 96 92 82 80 93 96 94 94 94 97 98 98 100 100 100 100 100 97 100 97 100 100 100 100 100 100 100 99 94
70 76 78 76 90 82 87 100 98 98 98 98 87 89 95 90 83 83 90 95 96 94 94 95 96 96 96 96 99 98 92 96 96 100 99 100 96 100 100 98 95 96 95 94
98 84 89 82 87 96 96 100 98 97 97 97 92 95 96 91 88 90 92 94 93 94 94 95 95 96 95 93 89 89 88 86 84 83 88 94 97 96 99 100 100 95 95 95
98 90 81 86 80 86 93 100 92 100 84 94 97 100 98 96 90 89 92 94 97 97 94 94 93 94 87 81 75 76 72 71 69 69 68 68 71 85 92 92 95 97 100 100
89 99 80 67 80 75 84 65 95 98 98 96 96 98 99 100 100 97 94 95 95 92 91 90 88 91 77 72 65 60 61 64 64 63 62 64 65 67 72 78 81 76 76 83
87 87 70 67 74 67 74 81 68 63 83 95 86 98 96 99 99 99 92 93 93 92 87 86 81 82 64 62 63 62 61 63 64 65 64 62 63 63 62 63 65 66 67 67
82 77 93 63 52 52 60 70 58 76 65 85 84 95 87 91 91 88 85 75 78 82 72 65 60 60 62 64 65 65 63 64 67 67 67 68 67 66 65 66 66 66 67 67
57 74 91 70 52 56 66 60 62 61 72 83 85 86 74 82 83 78 71 60 61 58 56 58 61 65 66 66 68 67 66 67 67 67 68 68 69 70 74 75 74 74 74 72
61 70 76 84 74 69 72 70 66 61 84 80 88 93 81 73 76 76 64 60 61 59 59 62 67 69 68 67 68 65 66 67 68 70 72 74 72 70 75 78 79 79 79 78
56 68 70 57 58 56 62 71 72 76 61 66 84 86 84 76 72 68 65 64 64 62 62 62 65 70 68 68 67 60 66 66 66 70 68 71 66 59 57 58 65 72 82 88
64 69 74 67 51 52 51 65 69 71 67 73 67 66 64 66 66 66 67 65 65 63 61 61 64 65 68 67 59 48 56 56 49 60 57 43 40 42 50 57 63 60 56 61
64 80 90 69 65 61 54 55 64 64 65 60 66 58 69 69 65 64 66 64 63 63 62 63 66 68 62 62 50 47 46 46 42 44 47 44 42 43 43 47 44 48 54 58
62 74 91 80 67 53 43 49 52 56 61 60 66 70 65 67 66 62 57 64 66 64 64 64 67 65 56 53 46 43 40 44 48 46 49 48 43 42 39 40 46 45 49 54
57 71 77 76 76 46 48 50 56 58 60 56 65 67 67 67 64 66 64 62 65 63 66 66 64 59 48 49 46 42 40 39 42 44 48 50 45 43 41 42 43 47 49 48
56 63 70 73 60 50 41 52 50 49 63 55 59 65 65 63 82 80 65 63 65 63 62 58 54 50 46 44 47 49 48 48 44 44 46 45 43 43 44 44 44 45 48 49
68 71 68 73 72 58 48 54 48 55 34 53 58 62 67 70 71 69 67 63 62 61 58 53 47 47 45 44 43 42 42 42 42 41 43 44 44 46 47 48 49 49 49 50
56 73 76 74 71 54 56 57 52 44 56 54 58 58 63 66 72 69 66 68 63 56 52 48 47 46 46 46 45 43 43 43 44 46 48 49 50 50 51 53 53 52 52 54
67 59 62 61 58 44 59 46 52 58 59 55 59 60 66 70 70 68 66 61 51 46 46 46 48 49 48 46 47 48 47 50 50 52 52 53 53 51 50 54 52 54 56 59
54 62 67 55 40 56 52 55 57 55 58 60 61 63 66 66 67 59 56 52 50 48 50 51 50 50 49 46 48 53 52 49 50 52 53 53 53 53 48 47 50 54 60 67
60 64 65 68 58 55 52 61 62 62 66 67 64 62 65 63 55 54 56 56 55 52 48 47 49 51 51 50 50 48 46 49 51 52 51 51 48 49 51 53 56 62 64 71
74 70 65 59 49 50 52 60 64 72 73 72 69 64 57 57 60 56 60 55 50 51 48 48 49 50 48 49 49 47 47 50 50 52 51 50 55 57 60 60 58 58 72 73

GFSCGP_925_rhum_093.txt.gz
RH
79 90 96 85 85 70 72 88 93 77 64 72 78 78 69 61 72 80 80 72 68 72 61 47 57 83 84 74 76 87 89 79 84 89 96 95 92 85 94 90 98 100 100 100
89 97 75 70 75 88 93 96 89 76 67 80 84 87 70 64 69 74 68 74 81 85 94 97 96 99 99 100 96 91 92 94 94 95 90 90 84 81 81 87 91 95 98 99
88 66 68 75 85 95 92 93 83 88 82 85 94 85 79 70 74 86 90 94 91 96 96 94 90 94 93 93 97 98 97 92 86 92 94 92 93 97 92 96 89 84 90 94
84 70 76 81 91 80 96 65 72 85 98 99 77 97 74 86 84 87 90 95 92 94 86 87 92 94 98 98 91 97 94 96 99 98 100 100 100 96 97 90 100 96 91 93
73 82 88 96 87 71 82 75 86 91 99 90 92 92 81 82 88 90 93 93 93 95 96 96 95 99 100 100 99 100 99 100 100 100 99 97 99 100 96 90 100 98 92 91
86 69 82 83 73 70 72 84 85 97 100 99 84 87 86 92 89 87 81 94 95 94 93 92 95 98 100 100 100 98 100 98 100 98 100 100 96 100 100 99 100 100 100 97
72 75 71 76 88 80 90 98 97 98 98 93 94 88 91 87 84 87 95 95 95 94 92 93 93 97 98 100 100 96 96 91 93 94 96 99 100 100 100 98 98 100 100 100
98 79 89 81 85 90 88 99 99 97 97 97 96 97 94 88 83 89 91 92 92 93 92 94 96 98 99 100 96 97 94 88 86 87 86 93 100 100 100 100 100 100 99 94
97 89 71 87 81 84 96 100 94 100 87 95 97 100 97 95 88 89 91 90 94 94 94 96 95 99 98 94 89 85 84 79 70 72 78 81 88 92 96 98 95 98 99 99
87 98 74 66 83 81 91 89 99 99 97 96 94 98 100 100 100 99 97 96 93 93 93 93 95 95 90 76 69 67 70 71 67 63 64 66 66 68 74 78 78 81 82 85
87 89 68 67 80 69 88 94 95 80 97 97 90 93 91 100 100 100 96 95 93 93 93 93 92 76 65 67 68 67 68 69 69 66 66 66 66 65 66 68 69 70 69 71
84 82 95 67 52 54 60 68 70 82 72 84 78 91 86 94 95 90 96 91 92 91 92 86 72 69 70 71 68 69 69 72 76 75 69 65 65 69 72 74 73 70 70 70
63 77 92 58 50 56 67 64 66 68 74 82 83 77 81 84 86 79 83 82 80 78 60 64 68 71 73 72 70 70 70 70 71 68 67 65 65 64 66 70 74 78 78 78
59 73 76 83 74 69 72 70 71 64 85 81 86 90 80 74 85 80 69 62 63 62 62 66 71 74 73 70 64 66 68 65 72 68 64 59 55 58 59 60 55 53 60 68
58 67 73 60 62 58 58 71 76 82 73 66 75 78 77 77 76 77 68 64 65 64 62 64 69 74 71 69 55 53 54 47 54 57 45 45 42 39 39 40 40 43 41 45
66 66 72 71 57 62 58 55 67 71 67 71 69 66 65 68 65 68 69 69 67 64 61 61 64 66 69 68 54 48 47 47 43 44 50 46 40 38 38 39 43 44 46 47
67 79 89 69 68 62 52 47 63 64 65 61 65 57 72 72 69 68 70 70 66 66 63 62 65 70 65 61 52 47 40 37 39 43 44 46 44 40 39 37 37 38 43 45
65 77 90 83 63 61 36 51 54 60 63 62 65 68 69 69 68 60 61 67 68 66 64 65 70 68 59 51 50 44 41 38 38 39 39 41 44 42 40 40 40 41 41 44
60 74 78 78 77 46 44 50 61 62 57 61 66 68 69 69 65 63 63 64 68 67 66 66 66 61 49 47 47 45 45 42 40 40 42 42 43 44 44 44 45 45 47 47
62 68 71 75 61 42 36 53 53 48 48 60 66 71 71 66 80 80 67 67 68 65 65 63 57 50 46 46 48 47 46 44 44 44 44 47 47 48 49 50 50 50 49 49
63 72 73 76 79 59 45 55 49 40 29 58 64 67 71 73 74 68 69 65 64 62 59 54 49 49 49 48 48 47 48 46 48 49 50 50 51 52 52 53 52 52 50 48
52 69 77 77 74 53 59 58 48 39 58 54 60 61 68 63 70 73 70 69 65 58 55 50 50 50 49 49 49 50 50 52 52 50 49 51 55 56 54 54 54 54 52 52
68 59 56 64 57 43 62 43 52 59 59 56 58 60 64 72 73 70 70 67 61 48 48 50 52 52 47 47 51 54 54 51 47 44 44 47 49 50 50 54 53 56 57 60
57 65 70 57 39 58 56 56 56 62 56 57 59 66 71 69 73 71 67 58 53 52 54 51 48 48 48 47 48 50 47 47 50 51 50 49 49 53 51 49 52 56 57 60
58 67 68 72 62 59 57 61 62 61 65 65 65 65 68 70 68 60 58 57 58 53 50 48 49 50 48 47 49 49 50 52 54 55 53 53 53 54 55 58 60 64 66 70
76 69 64 59 50 47 43 53 65 72 72 72 69 65 62 59 60 57 61 57 50 50 48 46 47 52 52 55 55 54 54 56 60 61 60 60 65 64 66 66 65 59 71 73

GFSCGP_925_rhum_096.txt.gz
RH
81 86 89 76 79 68 77 86 92 76 65 72 80 79 71 64 71 81 78 74 77 70 61 57 55 48 39 75 76 73 77 78 85 93 97 100 99 100 93 91 86 99 90 87
86 91 71 70 76 83 89 96 84 75 69 71 84 85 77 70 74 76 92 90 93 92 91 88 87 85 98 100 98 92 89 92 94 95 95 96 94 92 89 90 87 93 93 87
81 62 69 72 83 91 84 90 88 86 74 77 91 83 69 73 79 83 91 87 85 94 93 93 89 90 95 99 100 100 100 99 100 99 99 100 100 100 98 94 95 86 92 87
82 70 72 83 87 80 91 66 71 81 97 97 71 95 71 79 81 82 94 90 95 94 93 92 94 97 99 100 100 99 99 92 90 89 100 98 99 100 98 98 96 90 94 91
73 78 87 87 78 71 75 66 75 81 95 99 93 95 79 83 84 78 86 85 91 94 96 97 97 100 100 99 100 100 100 99 100 99 99 98 100 94 99 100 98 88 92 100
83 70 81 73 72 70 66 82 85 87 100 98 84 91 86 91 89 86 83 91 94 92 92 90 95 97 100 100 99 95 95 100 98 100 99 100 98 98 96 100 100 98 100 100
74 82 71 71 91 79 89 100 95 94 99 93 92 95 83 83 86 88 93 95 92 92 92 94 95 96 98 100 100 100 94 96 90 95 99 99 100 99 99 100 100 99 100 100
96 84 84 81 86 91 97 98 99 96 97 94 98 98 96 88 85 88 90 90 89 92 92 93 94 97 99 100 99 98 100 90 83 83 86 90 98 100 98 100 100 99 99 100
95 91 68 87 76 83 96 100 94 100 100 97 94 97 97 94 94 87 89 88 94 95 94 94 94 97 97 98 98 94 87 84 78 74 73 74 76 82 88 87 91 96 97 100
89 99 72 77 84 82 92 88 100 100 97 96 95 96 100 100 100 100 100 98 94 93 93 93 91 92 90 84 80 80 77 75 71 65 66 67 65 67 70 69 73 78 82 86
86 90 72 71 88 72 97 91 96 95 99 97 95 96 97 98 99 99 99 96 94 94 93 94 92 83 75 70 68 69 70 72 72 68 67 69 72 73 73 74 73 73 70 71
80 88 98 67 55 56 60 67 75 87 74 85 81 91 90 94 95 96 96 94 92 93 91 90 86 70 73 73 73 74 74 75 74 66 57 57 57 58 58 62 71 76 79 78
74 79 93 56 49 56 67 64 68 74 78 80 87 79 80 84 86 89 92 87 86 80 65 66 70 77 78 73 71 72 68 76 69 55 43 39 41 43 46 46 46 42 41 44
58 75 77 80 68 70 71 66 74 71 87 78 81 82 75 75 86 79 72 67 74 68 65 69 73 77 76 68 60 59 50 58 57 40 38 39 40 39 38 36 34 33 34 36
61 69 76 69 72 66 62 60 74 79 71 63 70 76 72 76 83 86 78 67 68 69 66 66 71 76 73 66 52 52 52 47 46 48 47 46 42 40 37 37 38 37 36 37
68 69 75 83 57 63 66 59 65 69 69 71 75 68 64 68 65 70 72 72 72 69 66 63 64 69 69 67 54 44 40 41 41 42 46 48 42 40 38 37 37 35 36 38
68 78 89 75 61 65 55 49 61 64 68 61 67 56 73 74 74 69 71 72 71 69 67 66 66 72 67 61 55 47 43 39 38 40 42 44 46 43 44 42 40 39 39 38
67 77 90 86 60 51 34 51 54 62 65 66 67 68 73 69 67 65 66 67 71 69 67 66 71 70 61 52 52 46 45 41 40 41 42 43 47 45 45 46 46 46 47 47
65 74 77 79 81 45 41 49 59 60 52 67 66 69 70 69 64 63 63 65 65 70 68 68 68 62 50 47 46 45 42 42 44 47 48 48 51 51 52 53 53 52 53 51
65 70 72 75 61 37 28 52 54 43 45 52 65 71 77 74 82 81 65 67 70 68 67 64 56 47 48 51 51 50 50 49 50 51 50 50 51 53 54 54 52 51 52 52
62 72 73 78 78 63 43 54 51 36 26 58 65 71 78 77 75 68 74 69 68 65 62 57 54 52 52 52 50 49 48 50 53 53 49 45 43 50 54 55 54 54 54 52
52 64 76 79 77 55 59 57 45 38 57 55 62 64 71 66 70 75 73 74 70 61 56 52 50 52 52 48 47 50 50 53 50 46 45 44 44 46 50 54 54 52 54 56
68 56 48 63 58 41 62 47 50 56 56 55 58 60 65 70 73 75 73 71 67 51 50 52 53 50 45 46 48 48 45 47 47 48 49 50 49 48 50 57 54 56 58 62
58 66 68 58 42 60 57 59 60 62 57 53 56 64 71 67 74 74 74 68 57 53 54 51 48 47 47 46 49 52 52 53 54 54 53 52 53 55 54 54 57 63 63 65
55 69 68 76 62 61 59 62 57 66 63 64 65 69 71 71 76 74 70 61 58 55 51 49 48 49 48 50 51 50 53 56 56 55 57 59 61 64 66 66 67 71 71 75
76 66 64 56 47 44 41 50 62 69 72 73 72 70 68 68 71 60 62 59 55 50 51 48 47 50 51 52 51 50 56 60 64 69 71 71 76 77 77 78 78 74 73 73

GFSCGP_925_rhum_099.txt.gz
RH
83 74 64 65 70 62 76 86 96 78 62 73 77 76 68 61 70 74 77 79 80 84 81 82 84 83 67 52 43 41 70 70 87 91 96 99 97 90 95 96 76 78 78 73
76 75 68 68 77 80 88 92 88 73 66 67 74 77 68 69 77 86 79 80 80 83 83 83 83 86 88 88 97 95 94 94 92 92 92 93 90 91 90 89 89 88 87 92
70 72 70 71 85 86 88 87 85 87 71 74 84 84 65 69 76 70 84 79 86 91 89 91 90 97 95 95 98 99 99 100 100 99 99 99 100 99 96 93 98 96 89 86
77 70 74 82 89 80 88 65 69 80 91 94 82 91 70 73 78 71 81 77 84 91 90 90 94 97 100 100 100 100 97 98 100 97 97 99 96 96 94 97 88 86 94 96
73 79 90 88 80 72 79 60 71 76 99 100 96 97 71 76 77 78 82 83 86 87 92 94 95 99 100 100 100 100 100 100 99 99 99 100 100 97 92 97 98 99 95 99
74 69 79 74 71 72 64 80 85 91 99 97 84 87 74 84 88 80 81 88 90 88 90 88 94 97 100 100 99 96 94 95 97 100 100 100 100 100 99 100 98 96 99 99
76 86 73 71 87 79 83 99 96 89 92 90 77 90 74 79 72 84 92 92 90 90 90 90 93 96 98 100 100 99 91 90 90 93 97 100 100 99 100 99 100 100 99 99
96 77 80 82 84 94 98 99 91 99 95 90 94 91 89 85 86 86 86 86 87 91 90 92 92 97 98 100 98 100 98 85 86 78 81 81 90 90 91 94 97 98 100 100
90 89 72 87 73 79 96 97 88 98 85 96 84 94 96 93 96 94 96 95 91 93 93 92 93 97 99 100 100 99 100 90 85 83 84 80 80 79 80 80 82 86 89 93
87 97 70 79 81 80 83 81 97 100 98 92 86 93 98 99 100 100 100 98 96 93 92 92 93 94 95 92 90 90 85 81 76 71 77 79 73 68 69 72 74 74 75 77
84 88 73 75 96 82 94 93 90 95 99 94 92 88 96 100 99 99 97 96 95 93 93 92 88 85 83 78 74 75 75 72 60 52 48 48 49 44 45 46 50 59 64 68
80 83 98 73 59 57 63 67 74 87 76 83 82 76 88 93 92 96 94 95 91 90 88 83 72 74 76 73 73 72 74 63 50 39 35 38 38 38 40 39 38 36 35 34
82 84 91 55 49 55 64 64 66 75 78 80 80 70 80 82 89 92 95 85 80 77 64 62 68 75 78 63 62 53 66 64 46 36 32 34 35 34 36 37 36 34 32 32
66 78 76 76 59 70 75 63 70 78 83 73 77 79 77 85 86 85 87 78 79 72 64 66 69 74 76 60 56 52 48 48 48 44 41 40 40 37 34 32 30 30 32 32
66 76 79 75 73 71 73 65 62 78 70 64 59 84 75 80 86 83 78 69 68 68 67 67 68 72 73 62 49 44 44 44 44 42 42 44 41 38 37 36 35 34 32 31
71 76 77 85 66 67 71 66 64 73 73 77 77 76 62 69 72 80 77 71 70 70 67 66 67 71 70 66 55 46 40 38 39 41 44 47 45 42 42 42 42 39 38 37
70 79 87 76 61 64 63 61 63 66 68 63 74 56 74 75 73 69 71 71 68 68 67 67 66 69 68 61 55 48 48 46 43 41 42 44 47 47 46 46 45 43 43 43
70 75 89 89 62 44 32 51 53 60 61 70 67 65 70 69 69 67 65 65 68 68 68 69 70 71 64 52 53 48 46 43 42 43 43 44 46 48 49 52 52 51 51 50
70 75 78 79 78 41 35 45 60 60 42 64 71 67 70 70 66 66 66 66 63 67 68 67 67 66 53 48 49 48 44 44 46 50 53 53 53 54 56 57 58 56 56 55
72 72 73 79 61 36 21 48 54 44 43 45 67 72 76 74 79 73 66 68 70 69 68 69 64 53 48 49 48 48 50 51 54 57 54 48 44 43 43 46 49 51 54 54
62 74 80 79 78 60 42 56 52 37 20 55 68 72 80 77 71 66 73 72 71 69 68 60 52 50 52 54 53 52 52 53 52 46 42 41 43 46 48 49 50 54 54 52
51 68 79 82 80 54 58 59 44 36 52 55 66 68 78 72 72 76 76 76 74 69 65 59 56 57 57 52 49 45 42 46 47 48 48 48 48 51 52 54 54 53 55 59
63 51 45 57 51 39 63 46 51 48 52 56 58 63 70 74 75 77 77 77 74 62 56 55 54 50 47 45 43 46 47 49 50 49 48 48 50 52 57 60 59 62 61 67
59 66 66 55 41 58 53 52 63 60 57 50 56 60 71 67 72 78 77 78 64 56 57 54 49 46 43 44 47 50 51 52 55 54 55 55 58 65 62 66 71 75 78 79
53 69 68 74 60 56 53 59 55 63 64 57 61 65 69 68 72 74 77 70 59 56 53 49 46 46 47 52 52 50 56 60 61 63 65 68 73 73 76 75 76 80 79 80
75 66 60 54 47 42 41 41 56 66 67 71 71 69 68 70 71 68 69 60 58 53 51 48 45 49 52 53 51 54 60 66 71 76 76 81 82 86 84 82 80 78 83 82

GFSCGP_925_rhum_102.txt.gz
RH
65 48 54 52 49 50 62 63 71 55 48 61 57 55 46 41 53 57 66 66 63 60 56 60 68 70 73 68 65 51 41 41 59 78 93 89 83 83 85 86 87 84 80 77
57 61 53 54 58 61 65 66 67 53 52 58 54 56 47 48 60 60 62 71 72 68 60 66 78 88 88 80 73 71 61 71 82 97 96 87 86 86 86 88 91 89 88 87
56 65 58 59 73 68 60 59 63 78 60 54 60 49 51 52 61 54 55 66 70 79 83 79 84 91 98 98 100 99 100 100 99 98 98 99 98 99 98 96 95 93 96 96
58 58 62 64 82 64 71 53 58 69 75 77 61 76 50 51 54 56 56 64 71 74 77 79 91 94 100 100 98 100 100 99 99 100 99 98 90 82 82 89 89 86 89 88
80 71 75 73 70 59 61 53 61 67 78 88 66 95 50 52 54 55 58 65 72 75 85 88 92 95 99 100 99 100 100 100 100 100 99 99 97 94 99 100 99 100 99 100
60 57 64 57 56 56 54 65 74 68 80 93 62 75 53 59 65 64 66 78 83 84 85 85 90 94 97 100 96 92 87 91 97 100 100 99 100 100 100 99 99 99 100 100
67 70 62 60 69 67 70 85 84 83 90 79 62 75 55 65 83 87 90 88 86 86 88 88 89 95 98 99 99 92 90 89 92 93 91 97 96 99 99 100 100 100 99 100
90 93 66 64 65 76 84 98 93 88 74 70 67 83 68 90 87 82 88 87 84 88 88 91 92 96 99 100 100 100 94 92 83 81 83 91 85 97 96 91 96 99 96 100
82 97 62 68 63 76 96 99 84 98 74 89 63 77 88 89 95 95 95 94 95 90 90 92 92 97 99 100 100 95 98 85 81 84 79 80 72 71 83 74 82 84 80 82
72 91 61 73 68 66 71 68 91 97 90 74 60 74 89 99 100 97 98 96 96 92 89 89 91 95 95 98 99 95 94 74 72 70 66 65 70 69 62 60 64 61 65 73
68 66 64 65 79 66 82 76 73 74 78 75 65 60 88 98 98 98 96 95 95 92 88 89 83 74 72 85 74 76 70 62 54 54 56 52 51 52 50 48 49 52 51 48
68 70 84 60 51 49 54 55 52 68 70 61 61 55 71 86 88 95 91 92 92 84 77 66 66 64 65 62 59 66 68 54 55 46 44 47 43 42 41 45 43 42 42 44
66 71 75 54 51 52 56 54 52 58 62 67 63 47 66 77 80 85 86 85 71 61 63 53 52 55 52 45 47 44 50 52 49 46 41 41 40 39 39 39 41 41 43 42
61 64 62 48 44 51 57 53 55 60 70 50 48 46 64 78 77 77 72 61 57 55 50 48 50 52 54 47 43 40 43 46 47 45 43 42 42 41 41 41 40 40 41 41
59 72 65 54 49 54 56 53 50 67 54 54 39 53 48 59 65 60 59 59 52 49 48 48 50 49 52 50 43 42 43 46 47 45 45 48 47 47 47 47 47 47 46 45
60 73 63 78 51 56 60 50 48 47 50 58 51 53 38 43 50 53 57 56 50 48 48 48 49 52 53 52 48 46 45 45 45 43 44 50 51 49 50 50 50 48 46 46
58 63 69 61 46 44 46 38 43 44 47 45 52 36 46 53 57 56 54 55 50 45 46 48 48 51 54 52 51 47 48 48 44 46 46 49 51 51 50 49 47 47 47 46
56 60 70 75 48 46 28 42 44 42 42 45 46 44 47 46 47 47 45 44 44 44 46 47 49 54 58 51 53 50 53 48 46 46 47 49 50 49 49 51 51 51 50 50
54 54 60 63 48 27 29 35 43 42 27 32 42 42 49 53 54 49 45 43 41 41 42 46 52 57 53 46 50 51 49 49 48 48 52 53 53 52 51 52 54 56 57 57
59 57 56 57 50 22 17 39 43 42 32 32 43 41 52 58 57 37 47 47 48 51 52 57 60 54 44 48 52 50 50 49 47 51 54 54 54 54 51 52 54 57 59 58
57 58 64 57 51 33 27 46 43 33 16 32 45 44 54 57 42 52 52 55 54 56 60 61 53 45 48 53 52 48 48 46 51 58 56 54 52 53 54 57 58 61 62 59
37 44 50 54 58 52 41 54 37 25 31 41 50 49 54 51 56 56 55 57 58 60 61 54 51 52 57 53 52 44 42 51 53 53 52 48 49 52 53 56 57 55 54 51
44 32 28 37 29 31 42 36 34 32 36 43 45 48 51 54 58 58 60 60 61 62 60 54 51 52 50 51 50 44 44 50 51 51 49 50 52 53 57 58 56 56 54 54
42 43 41 40 27 36 32 29 39 40 40 40 43 44 51 51 52 55 59 61 63 58 53 54 50 44 41 45 50 49 50 54 57 53 52 53 55 60 59 62 61 59 58 59
29 47 40 42 34 32 32 35 33 35 42 45 45 47 50 52 54 54 58 61 59 54 54 51 44 41 41 50 51 51 56 60 58 56 56 56 59 61 64 62 61 64 65 71
43 40 41 34 26 27 27 33 45 46 46 48 48 54 56 54 54 57 57 58 55 51 51 47 44 43 50 55 53 58 63 65 65 63 59 63 68 64 62 62 63 67 75 80

GFSCGP_925_rhum_105.txt.gz
RH
48 48 48 37 35 37 42 41 45 40 38 53 45 44 37 31 33 42 42 44 48 55 54 62 64 68 72 72 72 64 55 46 37 37 44 55 63 68 73 76 77 74 72 70
46 51 41 41 44 46 48 47 51 43 43 50 47 48 38 35 40 46 48 49 56 64 60 65 75 81 87 90 94 93 72 54 40 38 64 72 73 73 73 75 77 79 80 79
49 46 46 48 61 54 47 45 46 66 52 45 54 45 47 42 46 47 42 47 52 62 72 73 79 87 95 98 100 99 100 100 96 86 90 93 91 90 92 90 90 86 84 84
48 48 50 51 73 53 57 42 50 61 66 71 48 70 44 40 43 47 43 50 57 66 72 75 83 89 96 99 99 98 99 99 99 100 97 99 90 84 76 76 80 84 94 94
72 58 61 60 62 49 55 49 53 57 70 78 58 84 45 41 41 44 52 61 68 73 80 82 85 91 95 97 95 95 95 98 98 98 100 100 99 100 100 99 99 98 99 99
52 49 54 52 49 48 47 56 62 61 69 83 56 60 48 48 55 64 66 72 79 80 79 80 85 90 94 96 96 88 87 93 97 100 96 96 99 99 98 98 100 100 100 99
61 60 53 53 63 57 61 79 87 86 88 75 50 61 49 47 82 83 85 84 84 83 81 84 87 91 95 99 96 89 85 86 86 94 97 99 100 100 97 90 98 98 96 98
85 94 60 55 60 69 78 84 87 80 73 68 56 80 59 71 80 78 85 90 81 85 84 87 90 94 96 100 100 99 93 88 82 86 88 81 93 98 97 84 94 86 97 89
78 96 54 56 53 60 85 92 71 98 62 84 62 59 67 76 80 77 85 88 95 88 86 88 86 92 97 98 99 99 92 80 74 66 63 67 70 64 61 66 64 57 56 59
58 81 53 60 60 57 56 63 89 100 90 75 64 61 72 90 98 95 93 95 95 86 86 87 86 87 84 93 84 83 72 54 56 58 51 50 53 51 48 46 43 43 42 41
54 55 58 58 63 54 69 66 66 59 65 80 58 58 64 79 94 95 92 94 90 89 88 84 81 65 59 69 61 61 56 50 45 42 44 42 41 41 42 40 38 37 37 39
54 56 65 51 46 46 48 50 43 59 61 54 54 52 59 70 74 87 84 87 88 84 74 64 58 54 52 47 47 50 54 44 47 39 38 41 39 37 36 35 36 38 37 36
52 59 69 52 48 46 54 45 44 45 53 63 56 42 56 64 70 76 75 78 79 70 61 56 45 45 44 37 36 35 36 39 40 38 34 34 35 34 33 35 35 35 36 36
57 53 56 55 44 43 45 44 45 50 66 45 41 31 52 61 63 69 72 68 62 52 48 44 41 43 44 42 35 32 34 36 36 36 36 37 37 38 38 39 41 41 40 38
53 62 58 50 41 39 42 44 41 56 54 50 30 36 30 41 52 55 58 54 49 47 44 41 43 42 44 44 39 34 34 35 37 36 37 40 43 42 43 43 42 40 38 37
50 64 55 76 40 44 49 41 40 40 40 42 39 40 27 26 39 44 46 46 49 45 40 40 40 43 46 45 43 40 39 38 38 36 37 40 42 43 44 42 39 38 40 39
48 56 61 59 38 37 38 30 34 36 33 34 39 28 27 32 39 42 41 42 44 42 38 39 41 43 46 47 46 43 41 42 38 39 41 41 42 40 39 40 41 42 42 41
47 52 57 76 48 51 26 32 36 31 30 29 32 29 34 34 35 38 38 39 40 41 37 38 40 43 48 49 47 43 46 42 41 41 41 41 42 42 42 44 45 44 44 45
46 48 56 65 41 27 20 29 37 40 26 25 32 29 29 36 43 43 37 35 36 34 34 37 41 45 51 45 43 43 43 43 42 40 42 43 44 45 46 46 46 48 50 52
49 49 54 44 47 24 20 29 33 34 30 20 25 25 28 44 47 29 33 37 38 41 42 45 50 51 45 40 43 45 45 44 39 39 47 49 47 47 46 48 49 53 55 56
55 54 63 55 53 34 23 34 36 33 23 24 29 30 33 49 35 46 44 46 44 47 51 53 52 46 40 46 48 44 42 39 40 49 49 47 46 45 46 48 52 55 58 55
32 40 47 43 47 58 34 44 32 24 27 32 36 35 40 39 45 48 47 50 52 55 58 52 48 48 52 52 45 40 37 40 44 42 42 42 42 43 45 48 51 49 49 47
38 23 22 28 30 27 34 24 27 29 30 33 35 36 41 43 44 47 52 52 52 56 56 51 48 48 47 44 42 35 34 40 40 42 42 41 44 46 47 49 50 52 51 50
29 26 35 28 20 23 23 24 27 33 34 31 34 35 37 40 40 45 50 51 53 55 53 49 47 43 40 38 39 40 40 41 44 44 43 45 47 49 51 52 54 52 53 53
25 35 33 30 26 25 24 24 24 26 28 34 35 36 39 40 41 44 48 52 52 54 51 50 45 41 36 36 40 41 44 48 49 48 48 48 50 54 54 52 52 56 60 66
32 34 37 30 23 22 22 28 34 37 38 38 40 40 43 44 44 46 46 50 53 52 51 50 46 40 39 46 46 46 50 54 55 54 51 53 58 57 54 54 58 59 64 68

GFSCGP_925_rhum_108.txt.gz
RH
47 61 67 42 47 39 42 38 49 43 39 54 56 52 44 37 36 40 43 48 57 65 60 62 72 76 81 88 91 90 97 91 88 52 41 40 45 58 75 82 83 76 70 70
54 65 43 39 41 43 44 45 52 48 43 49 56 57 49 42 44 49 48 52 58 61 61 67 73 83 90 96 99 95 96 91 96 93 76 38 53 60 64 71 78 76 78 79
62 48 43 45 67 52 50 48 52 66 56 51 56 62 50 44 48 48 46 54 63 70 73 68 75 86 92 97 99 97 98 96 100 92 91 69 64 67 70 75 86 85 89 89
54 46 46 50 70 53 59 44 49 59 74 91 60 94 56 56 52 49 47 66 76 80 74 71 80 87 94 97 93 94 95 96 99 99 96 93 100 91 93 96 99 99 97 91
70 58 59 57 63 48 62 51 56 61 63 77 64 89 69 47 48 53 70 79 79 79 74 78 84 88 94 97 97 88 90 92 98 99 99 99 100 100 99 99 96 96 97 97
56 48 51 56 47 48 47 57 62 59 69 83 71 78 71 62 59 68 72 80 84 80 78 77 83 88 94 95 92 92 89 88 89 97 99 99 100 97 96 90 92 92 93 93
66 60 54 52 59 56 58 72 84 91 92 90 64 69 68 66 79 80 84 83 82 83 82 84 87 91 94 98 98 94 90 85 79 82 86 97 99 88 87 96 90 76 71 71
77 95 63 56 63 72 77 81 96 81 84 86 61 86 75 78 76 78 78 79 81 83 82 86 88 92 96 96 93 86 85 76 62 60 57 64 66 61 64 73 80 75 49 53
86 93 56 56 48 59 88 95 70 92 68 89 81 69 79 80 78 74 79 82 87 89 84 86 85 88 89 92 82 82 69 64 61 52 46 44 44 45 44 45 45 40 34 41
57 76 57 59 58 60 64 60 90 97 95 90 82 75 87 94 86 85 85 84 84 87 84 87 84 80 74 77 62 62 55 47 43 40 41 42 41 38 39 38 37 37 36 35
54 58 66 65 75 66 66 67 64 60 71 80 84 82 67 85 79 80 77 74 79 80 85 86 82 69 58 54 53 53 54 44 40 40 38 38 39 37 37 36 36 37 38 37
58 66 81 65 52 47 50 57 54 76 78 73 66 76 63 74 78 80 76 74 78 81 81 80 73 59 51 47 43 39 46 42 41 39 36 35 35 34 34 36 36 36 37 37
57 68 85 59 53 47 57 53 53 47 67 81 81 68 66 71 80 81 79 80 76 74 74 74 65 56 48 41 36 35 34 36 38 37 36 36 36 37 38 39 41 41 40 39
61 60 68 82 55 45 54 50 52 56 90 73 66 52 76 74 74 80 80 79 83 78 72 68 60 49 46 44 36 33 33 35 36 36 37 39 42 42 42 43 43 41 39 39
59 72 61 62 56 52 51 49 50 61 61 69 45 46 38 53 68 71 75 74 75 73 63 57 54 52 47 46 40 35 34 36 37 36 37 38 42 42 44 44 41 40 40 42
56 75 62 86 54 49 57 50 46 45 49 55 54 55 37 32 54 63 69 69 67 59 54 50 48 48 48 47 45 39 39 39 38 37 38 40 42 42 40 39 40 40 42 42
52 68 76 81 55 58 62 43 43 45 42 43 54 42 33 32 43 56 58 56 55 56 53 47 49 48 47 48 46 43 40 41 40 39 41 41 42 41 41 42 43 44 45 45
53 58 70 92 71 73 37 33 39 38 36 39 36 34 34 35 36 39 46 51 52 50 49 46 46 44 47 48 48 44 43 43 42 42 42 42 42 43 44 44 45 46 47 50
54 59 78 89 72 49 30 40 39 43 36 34 33 33 34 38 47 53 46 45 47 44 50 42 40 44 50 50 47 44 43 45 44 41 41 43 43 44 46 47 48 50 53 56
52 57 74 65 63 52 28 31 32 33 41 29 28 32 34 56 68 55 50 45 43 46 44 47 48 50 50 44 42 43 45 46 41 40 42 42 45 47 46 46 47 49 53 56
75 76 87 86 78 60 32 37 36 31 30 26 29 30 32 60 57 55 48 48 47 49 50 52 52 50 44 41 44 47 44 41 40 40 39 42 42 43 43 44 46 49 51 50
61 73 78 70 69 73 42 45 37 31 32 33 37 35 39 45 57 55 55 59 58 61 58 55 51 45 45 47 47 44 39 37 38 38 39 40 42 42 44 46 49 50 52 53
43 34 39 50 56 37 45 36 39 33 36 36 36 42 46 52 53 60 62 63 65 64 60 51 49 52 52 49 42 36 35 37 38 40 42 43 44 46 48 51 52 54 55 54
33 30 45 34 26 24 35 39 38 38 42 38 38 43 44 53 53 57 63 65 68 63 60 51 50 51 47 42 39 36 39 39 40 45 46 47 48 49 53 54 54 53 54 58
39 36 42 44 32 29 26 26 30 32 35 37 37 42 46 48 51 52 62 65 66 62 57 51 49 46 41 37 37 39 40 42 48 50 51 52 51 55 58 57 54 56 60 64
41 34 43 34 31 31 30 30 34 37 39 44 44 48 48 49 54 52 57 61 60 61 54 52 48 43 37 37 41 43 43 49 53 57 58 57 61 63 61 58 60 64 67 70

GFSCGP_925_rhum_111.txt.gz
RH
51 68 71 51 44 41 41 43 50 44 48 50 59 62 53 48 44 51 59 70 69 69 67 68 78 83 84 81 91 94 94 93 89 100 99 83 74 43 38 54 68 75 76 80
68 69 46 47 48 48 49 47 57 55 50 51 61 63 53 52 50 59 58 70 77 76 75 70 73 80 90 81 87 95 98 96 95 99 99 100 82 68 70 59 66 79 97 99
71 55 45 57 65 56 52 52 66 69 62 59 64 68 52 50 56 52 52 77 81 84 85 79 75 85 92 95 94 94 95 98 99 99 100 95 72 63 67 74 83 100 99 100
62 47 50 62 68 57 66 53 56 65 78 90 65 82 72 57 61 60 78 89 88 84 77 74 84 88 94 94 94 89 94 93 91 98 99 100 100 99 100 99 99 99 100 97
73 59 59 61 66 50 69 56 62 65 72 83 75 92 75 61 62 71 89 89 87 82 81 83 86 88 94 92 92 89 84 84 84 93 98 100 99 99 99 100 97 97 100 97
61 50 55 62 52 52 55 63 67 61 72 96 76 82 80 68 57 76 86 86 87 85 81 81 87 90 93 90 87 82 74 72 69 74 90 97 97 96 98 95 89 76 68 67
66 65 56 53 65 58 57 79 94 88 98 91 69 82 75 64 80 80 85 86 86 85 84 87 89 91 94 90 86 85 72 59 56 50 53 57 59 64 71 75 66 55 53 42
87 82 72 60 60 79 78 77 95 92 98 91 67 83 70 80 84 84 82 78 77 84 84 86 87 88 92 90 82 72 64 54 48 46 43 40 43 44 45 42 39 39 37 42
88 91 61 61 46 63 85 90 73 93 83 95 86 71 72 84 86 85 80 79 84 84 82 86 84 85 85 85 68 72 52 45 43 40 41 40 37 37 38 37 38 39 38 36
64 89 67 63 60 62 68 67 86 95 96 80 85 79 84 91 88 86 88 86 82 82 86 85 86 83 76 72 59 57 51 36 37 37 36 37 36 36 35 35 35 35 35 36
58 65 73 72 82 75 70 76 72 68 74 83 91 81 73 76 86 87 86 79 78 82 84 83 85 80 71 62 48 43 48 41 34 35 36 35 35 36 36 36 37 37 36 37
61 72 93 74 61 57 63 68 68 85 83 74 82 78 64 75 83 83 83 79 78 76 84 86 84 76 68 56 44 40 40 43 39 37 36 36 36 36 37 39 40 41 40 38
62 77 89 73 61 53 60 62 61 59 73 81 89 75 77 78 84 86 86 86 86 86 84 88 86 81 68 55 41 37 35 35 37 36 36 38 39 40 41 42 43 41 38 38
63 74 74 80 62 59 69 62 64 66 94 78 84 70 78 84 84 87 88 85 88 85 82 85 86 79 66 50 40 36 34 35 34 35 36 38 40 42 43 44 42 39 39 41
68 81 69 68 68 65 64 59 58 76 64 75 56 59 45 67 81 77 77 85 88 87 84 82 78 74 56 52 43 39 34 33 35 36 37 38 40 42 42 39 38 39 40 43
65 74 71 84 63 66 72 64 58 54 59 59 56 56 40 37 47 75 80 80 79 79 76 73 70 61 54 52 47 40 36 36 38 37 38 40 42 42 40 37 36 37 40 41
72 78 80 74 71 69 53 52 52 52 52 50 64 48 44 42 50 65 74 74 72 71 68 65 59 54 50 50 47 44 40 40 40 38 40 43 42 41 39 41 42 44 46 47
62 65 80 90 75 58 27 32 39 47 43 42 43 44 41 43 41 56 65 66 68 64 62 58 54 49 47 49 50 45 43 42 40 42 44 43 42 39 40 42 44 44 46 48
62 70 79 86 85 56 35 41 38 42 32 40 41 37 41 37 46 51 51 58 56 56 54 52 46 44 49 51 48 46 44 42 45 46 42 41 37 39 41 43 44 45 46 50
58 66 80 82 74 60 26 29 34 30 31 26 40 40 42 56 63 42 44 52 53 50 50 50 46 50 51 51 49 46 43 46 46 42 40 36 36 38 41 43 44 46 48 52
80 80 90 92 92 76 48 33 36 20 14 27 30 33 48 58 48 46 50 53 54 54 54 52 52 54 51 47 44 44 47 48 42 40 36 36 36 41 42 44 46 49 52 54
75 89 94 89 93 81 43 44 32 24 34 30 34 34 39 48 54 57 55 58 63 67 64 55 55 52 45 43 44 48 46 41 39 37 35 36 41 43 45 47 51 53 55 57
49 53 66 69 66 41 48 35 40 34 33 34 36 40 44 50 59 61 63 66 69 67 63 58 54 50 48 47 46 44 37 36 37 35 36 41 44 46 49 54 56 57 55 56
34 37 41 33 29 33 31 37 44 41 40 39 40 41 41 49 53 58 67 70 74 69 66 57 54 56 54 50 44 37 36 37 36 37 41 45 48 52 55 57 59 56 58 63
46 38 43 46 33 32 30 31 32 35 43 46 45 41 42 48 53 55 63 74 74 70 64 56 56 56 52 46 41 37 38 38 36 41 45 50 54 58 61 60 58 62 65 70
48 39 46 39 26 31 31 32 33 33 35 38 40 42 44 46 53 55 62 68 68 71 64 58 54 52 47 41 38 39 39 38 40 46 52 55 62 65 62 61 62 64 72 75